Location: Northcutt
(34.7304°N, 84.4305°W)
Time: 13:02:46
(UTC+00:00)

A-11 Canister half - Pass Details

Date: 11 October 2022
Orbit: 1524 x 1685 km, 47.3° (Epoch: 25 November)

Event Time Altitude Azimuth Distance (km) Brightness Sun altitude
Rises 02:59:57 0° 296° (WNW) 4,726 12.3 -46.7°
Reaches altitude 10° 03:03:35 10° 285° (WNW) 3,761 11.5 -47.3°
Enters shadow 03:09:34 26° 247° (WSW) 2,747 10.4 -48.4°
